Location: Newark
(43.0000°N, 1.6781°W)
Time: 18:28:56
(UTC+00:00)

Transit 2A Rocket - Pass Details

Date: 21 April 2021
Orbit: 594 x 908 km, 66.7° (Epoch: 05 May)

Event Time Altitude Azimuth Distance (km) Brightness Sun altitude
Rises 00:32:13 0° 322° (NW) 2,899 8.5 -34.8°
Reaches altitude 10° 00:34:29 10° 316° (NW) 2,020 7.6 -34.7°
Enters shadow 00:34:37 11° 316° (NW) 1,967 7.5 -34.7°
